TimeMST,TemperatureF,Dew PointF,Humidity,Sea Level PressureIn,VisibilityMPH,Wind Direction,Wind SpeedMPH,Gust SpeedMPH,PrecipitationIn,Events,Conditions,WindDirDegrees,DateUTC
12:55 AM,27.0,24.1,89,29.65,10.0,North,5.8,-,N/A,,Clear,10,2013-03-04 07:55:00
1:55 AM,27.0,24.1,89,29.64,10.0,Calm,Calm,-,N/A,,Clear,0,2013-03-04 08:55:00
2:55 AM,28.0,25.0,88,29.63,10.0,Calm,Calm,-,N/A,,Clear,0,2013-03-04 09:55:00
3:55 AM,34.0,27.0,75,29.63,10.0,Calm,Calm,-,N/A,,Overcast,0,2013-03-04 10:55:00
4:55 AM,34.0,28.0,79,29.66,10.0,NNE,20.7,28.8,N/A,,Overcast,20,2013-03-04 11:55:00
5:55 AM,28.9,26.1,89,29.76,10.0,North,17.3,-,N/A,,Clear,10,2013-03-04 12:55:00
6:55 AM,27.0,23.0,85,29.79,10.0,North,20.7,-,N/A,,Clear,360,2013-03-04 13:55:00
7:55 AM,28.0,21.9,78,29.83,10.0,North,19.6,-,N/A,,Overcast,10,2013-03-04 14:55:00
8:55 AM,28.9,21.0,72,29.83,10.0,North,16.1,-,N/A,,Unknown,350,2013-03-04 15:55:00
9:55 AM,28.9,21.0,72,29.85,10.0,North,17.3,26.5,N/A,,Overcast,350,2013-03-04 16:55:00
10:55 AM,30.9,21.9,69,29.84,10.0,North,15.0,24.2,0.00,,Overcast,350,2013-03-04 17:55:00
11:55 AM,34.0,21.9,61,29.83,10.0,North,17.3,26.5,0.00,,Partly Cloudy,360,2013-03-04 18:55:00
12:55 PM,33.1,21.0,61,29.88,10.0,North,20.7,28.8,N/A,,Overcast,350,2013-03-04 19:55:00
1:18 PM,30.2,21.2,69,29.85,10.0,North,24.2,29.9,N/A,,Overcast,360,2013-03-04 20:18:00
1:41 PM,28.4,21.2,74,29.87,10.0,North,21.9,26.5,N/A,,Overcast,10,2013-03-04 20:41:00
1:55 PM,28.0,23.0,81,29.94,10.0,North,23.0,26.5,N/A,,Overcast,360,2013-03-04 20:55:00
2:37 PM,26.6,24.8,93,29.93,9.0,North,18.4,26.5,0.01,Snow,Light Snow,360,2013-03-04 21:37:00
2:51 PM,26.6,24.8,93,29.93,9.0,North,18.4,-,0.02,Snow,Light Snow,360,2013-03-04 21:51:00
2:55 PM,26.1,24.1,92,30.01,9.0,North,23.0,27.6,0.03,Snow,Light Snow,360,2013-03-04 21:55:00
3:48 PM,24.8,21.2,86,29.98,9.0,NNW,24.2,40.3,0.01,Snow,Light Snow,340,2013-03-04 22:48:00
3:55 PM,24.1,21.0,88,30.03,9.0,NNW,24.2,40.3,0.01,Snow,Light Snow,340,2013-03-04 22:55:00
4:11 PM,24.8,21.2,86,30.01,9.0,NNW,19.6,27.6,0.00,Snow,Light Snow,340,2013-03-04 23:11:00
4:27 PM,24.8,21.2,86,30.00,9.0,NNW,17.3,28.8,0.00,Snow,Light Snow,340,2013-03-04 23:27:00
4:55 PM,25.0,21.9,88,30.06,9.0,NNW,17.3,26.5,0.00,Snow,Light Snow,340,2013-03-04 23:55:00
5:14 PM,24.8,21.2,86,30.01,10.0,North,8.1,26.5,0.00,,Mostly Cloudy,360,2013-03-05 00:14:00
5:55 PM,25.0,17.1,72,30.12,10.0,NNW,16.1,23.0,0.00,,Mostly Cloudy,340,2013-03-05 00:55:00
6:55 PM,21.9,10.9,63,30.17,10.0,North,23.0,27.6,N/A,,Mostly Cloudy,350,2013-03-05 01:55:00
7:55 PM,21.0,8.1,57,30.22,10.0,North,20.7,-,N/A,,Clear,350,2013-03-05 02:55:00
8:55 PM,15.1,8.1,74,30.27,10.0,North,10.4,-,N/A,,Clear,360,2013-03-05 03:55:00
9:55 PM,14.0,7.0,74,30.27,10.0,North,6.9,18.4,N/A,,Clear,360,2013-03-05 04:55:00
10:55 PM,12.9,7.0,77,30.29,10.0,NNW,11.5,-,N/A,,Clear,340,2013-03-05 05:55:00